Regional Weather Roundup
Issued by NWS

Home | Current Version | Previous Version | Graphics & Text | Print | Product List | Glossary Off
Versions: 1 2 3 4 5 6 7 8 9 10 11 12 13 14 15 16 17 18 19 20 21 22 23 24 25 26 27 28 29 30 31 32 33 34 35 36 37 38 39 40 41 42 43 44 45 46 47 48 49 50

000
ASUS43 KDTX 181301
RWRMI
MICHIGAN HOURLY REGIONAL WEATHER ROUNDUP
NATIONAL WEATHER SERVICE DETROIT/PONTIAC MI
900 AM EDT SAT APR 18 2015

NOTE: "FAIR" INDICATES FEW OR NO CLOUDS BELOW 12,000 FEET WITH NO
SIGNIFICANT WEATHER AND/OR OBSTRUCTION TO VISIBILITY.

MIZ047>049-052>055-059>063-066>070-074>076-081>083-181400-
SOUTHEAST LOWER MICHIGAN

CITY           SKY/WX    TMP DP  RH WIND       PRES   REMARKS
ADRIAN         SUNNY     58  47  66 CALM      30.06R
ALMA           SUNNY     57  38  49 N10G22    30.08S
ANN ARBOR      MOSUNNY   59  50  72 CALM      30.04R
BAD AXE        SUNNY     54  40  60 N20       30.08R
CARO           SUNNY     56  43  60 N9        30.07R
DETROIT CITY   MOSUNNY   62  43  49 NW7       30.06R
DETROIT        PTSUNNY   60  44  55 SW3       30.05R
FLINT          SUNNY     61  42  49 N9        30.07S
GROSSE ILE     MOSUNNY   57  46  67 CALM      30.03S
HILLSDALE      PTSUNNY   63  47  55 W3        30.06R
HOWELL         MOSUNNY   59  42  53 N5        30.06R

CITY           SKY/WX    TMP DP  RH WIND       PRES   REMARKS
JACKSON        MOSUNNY   61  46  57 SW6       30.05R
LAMBERTVILLE   MOSUNNY   61  50  67 CALM      30.05S
LANSING        SUNNY     59  43  55 N5        30.07R
LAPEER         FAIR      57  44  61 NW6       30.07R
MASON          MOSUNNY   58  44  59 NW6       30.06R
MONROE         PTSUNNY   57  48  72 CALM      30.03S
PONTIAC        PTSUNNY   62  42  47 N12       30.05R
PORT HOPE        N/A     49  39  68 NW13      30.07R
PORT HURON     MOSUNNY   59  45  58 W3        30.04S
TRI CITIES     SUNNY     58  39  49 N13       30.08R
TROY           MOSUNNY   64  41  42 NW13      30.06R
SAGINAW HB     SUNNY     55  39  54 N8        30.07R
$$
MIZ043>046-050>051-056>058-064>065-071>073-077>080-181400-
SOUTHWEST LOWER MICHIGAN

CITY           SKY/WX    TMP DP  RH WIND       PRES   REMARKS
BATTLE CREEK   MOSUNNY   62  47  57 W5        30.06R
BENTON HARBOR  MOSUNNY   58  47  66 NW5       30.05S
BIG RAPIDS     SUNNY     54  37  53 N7        30.10R
COLDWATER      PTSUNNY   59  49  68 W3        30.06R
FREMONT        FAIR      53  38  56 N8G16     30.08S
HOLLAND        MOSUNNY   57  44  62 NE9       30.07R
GRAND RAPIDS   PTSUNNY   58  44  60 N6        30.07R
IONIA          FAIR      58  43  56 N9        30.07R
KALAMAZOO      MOSUNNY   57  49  74 S3        30.06R
LUDINGTON      SUNNY     51  38  61 NE8G18    30.12S
MARSHALL       MOSUNNY   58  46  64 W3        30.05S
MOUNT PLEASANT SUNNY     56  39  51 N7        30.08R
MUSKEGON       PTSUNNY   56  40  55 NE10      30.08R
SOUTH HAVEN    MOSUNNY   56  45  67 N8        30.07R
$$
MIZ016>042-181400-
NORTHERN LOWER MICHIGAN

CITY           SKY/WX    TMP DP  RH WIND       PRES   REMARKS
ALPENA         SUNNY     51  31  46 N12G17    30.12R
BEAVER ISLAND  SUNNY     42  33  70 N12G20    30.17R
BELLAIRE       SUNNY     47  32  57 N6        30.15R
CADILLAC       SUNNY     48  33  56 N12       30.11R
CHARLEVOIX     SUNNY     41  33  74 N8        30.20R
FRANKFORT      SUNNY     48  32  54 NE8       30.15R
GAYLORD        SUNNY     46  32  58 VRB7      30.13R
GRAYLING       SUNNY     49  33  54 N10       30.12R
HARBOR SPRINGS SUNNY     45  32  60 NW3       30.16R
HOUGHTON LAKE  SUNNY     50  34  54 N9        30.11R
MANISTEE       SUNNY     48  34  57 NE9       30.14R
OSCODA         SUNNY     53  33  45 N17G23    30.09R
PELLSTON       SUNNY     46  32  58 N14       30.15R
ROGERS CITY    SUNNY     45  32  61 NW14G22   30.15R
TRAVERSE CITY  MOSUNNY   46  33  60 N9        30.15R
$$
MIZ007>008-015-181400-
EASTERN UPPER MICHIGAN

CITY           SKY/WX    TMP DP  RH WIND       PRES   REMARKS
KINROSS        SUNNY     41  34  75 N12       30.15R
MACKINAC ISLAN SUNNY     44  32  63 N10G17    30.15R
NEWBERRY       SUNNY     40  33  77 N13G23    30.18R WCI  33
S. S. MARIE    SUNNY     45  32  60 N12       30.14R
$$
MIZ004>006-011>014-085-181400-
CENTRAL UPPER MICHIGAN

CITY           SKY/WX    TMP DP  RH WIND       PRES   REMARKS
MANISTIQUE     SUNNY     42  36  77 N15G24    30.18R
ESCANABA       SUNNY     43  34  70 N15       30.21R
MENOMINEE      SUNNY     45  34  65 NE13G21   30.19R
SAWYER-GWINN   CLOUDY    37  34  87 N15G23    30.22R WCI  28
$$
MIZ001>003-009>011-084-181400-
WESTERN UPPER MICHIGAN

CITY           SKY/WX    TMP DP  RH WIND       PRES   REMARKS
IRON MOUNTAIN  PTSUNNY   41  33  73 N12       30.21R
HOUGHTON       MOSUNNY   40  32  73 E10       30.22S WCI  33
COPPER HARBOR    N/A     37  32  82 NE6       30.25R WCI  32
IRONWOOD       PTSUNNY   39  34  81 E12       30.20R WCI  32
$$

ABBREVIATIONS USED IN REMARKS
   TC - TEMPERATURE IN CELSIUS
  WCI - WIND CHILL INDEX
   HX - HEAT INDEX
  VSB - VISIBILITY




USA.gov is the U.S. government's official web portal to all federal, state and local government web resources and services.